Weather History for New Haven, CT

Change the Weather History Date:

Monday, May 19, 2014

  Actual Average Record
Temperature  
Mean Temperature 60 °F -  
Max Temperature 71 °F 64 °F 87 °F (1986)
Min Temperature 50 °F 48 °F 37 °F (2003)
Degree Days  
Heating Degree Days 5    
Growing Degree Days 10 (Base 50)    
Moisture  
Dew Point 35 °F    
Average Humidity 38    
Maximum Humidity 52    
Minimum Humidity 26    
Precipitation  
Precipitation 0.00 in - - ()
Sea Level Pressure  
Sea Level Pressure 30.10 in    
Wind  
Wind Speed 9 mph (NNW)    
Max Wind Speed 17 mph    
Max Gust Speed 29 mph    
Visibility 10 miles    
Events      
Averages and records for this station are not official NWS values.
T = Trace of Precipitation, MM = Missing Value Source: NWS Daily Summary

Daily Weather History Graph

Daily Weather History Graph

Search for Another Location

Airport:

Trip Planner

Search our weather history database for the weather conditions in past years. The results will help you decide how hot, cold, wet, or windy it might be!

Date:

Astronomy

May. 19, 2014 Rise Set
Actual Time 5:29 AM EDT 8:07 PM EDT
Civil Twilight 4:57 AM EDT 8:39 PM EDT
Nautical Twilight 4:17 AM EDT 9:19 PM EDT
Astronomical Twilight 3:32 AM EDT 10:04 PM EDT
Moon No Moon Rise 10:24 AM EDT (5/19)
Length of Visible Light 15h 41m
Length of Day
14h 37m
Waning Gibbous, 71% of the Moon is Illuminated
May 19
Waning Gibbous
May 21
Last Quarter
May 28
New
Jun 5
First Quarter
Jun 13
Full

Hourly Weather History & Observations

Time (EDT) Temp. Dew Point Humidity Pressure Visibility Wind Dir Wind Speed Gust Speed Precip Events Conditions
12:53 AM 55.9 °F 32.0 °F 40% 30.12 in 10.0 mi NNW 10.4 mph - N/A   Clear
1:53 AM 55.0 °F 30.0 °F 38% 30.12 in 10.0 mi NW 8.1 mph 17.3 mph N/A   Clear
2:53 AM 53.1 °F 30.0 °F 41% 30.12 in 10.0 mi NNW 6.9 mph - N/A   Clear
3:53 AM 52.0 °F 30.9 °F 45% 30.14 in 10.0 mi NW 5.8 mph - N/A   Clear
4:53 AM 51.1 °F 32.0 °F 48% 30.15 in 10.0 mi NW 3.5 mph - N/A   Clear
5:53 AM 50.0 °F 33.1 °F 52% 30.17 in 10.0 mi NW 4.6 mph - N/A   Clear
6:53 AM 53.1 °F 33.1 °F 47% 30.18 in 10.0 mi NNW 3.5 mph - N/A   Clear
7:53 AM 57.0 °F 35.1 °F 44% 30.17 in 10.0 mi Variable 4.6 mph - N/A   Clear
9:53 AM 63.0 °F 33.1 °F 33% 30.15 in 10.0 mi NNW 12.7 mph 20.7 mph N/A   Clear
10:53 AM 64.0 °F 34.0 °F 33% 30.13 in 10.0 mi NW 9.2 mph 19.6 mph N/A   Partly Cloudy
11:53 AM 66.9 °F 35.1 °F 31% 30.12 in 10.0 mi NW 13.8 mph 25.3 mph N/A   Clear
12:53 PM 66.0 °F 35.1 °F 32% 30.09 in 10.0 mi NNW 13.8 mph 20.7 mph N/A   Scattered Clouds
1:53 PM 68.0 °F 33.8 °F 28% 30.07 in 10.0 mi NW 15.0 mph 24.2 mph N/A   Mostly Cloudy
2:53 PM 70.0 °F 35.1 °F 28% 30.06 in 10.0 mi NNW 13.8 mph 21.9 mph N/A   Mostly Cloudy
3:53 PM 68.0 °F 34.0 °F 28% 30.05 in 10.0 mi NNW 12.7 mph 23.0 mph N/A   Mostly Cloudy
4:39 PM 66.2 °F 35.6 °F 32% 30.05 in 10.0 mi North 17.3 mph 28.8 mph N/A   Mostly Cloudy
4:53 PM 66.9 °F 36.0 °F 32% 30.06 in 10.0 mi North 10.4 mph 24.2 mph N/A   Mostly Cloudy
5:53 PM 70.0 °F 33.1 °F 26% 30.04 in 10.0 mi NNW 11.5 mph 19.6 mph N/A   Mostly Cloudy
6:53 PM 66.0 °F 37.9 °F 36% 30.06 in 10.0 mi NNW 8.1 mph - 0.00 in   Mostly Cloudy
7:53 PM 63.0 °F 39.0 °F 41% 30.06 in 10.0 mi NNW 6.9 mph - N/A   Mostly Cloudy
8:53 PM 62.1 °F 39.0 °F 43% 30.06 in 10.0 mi NW 5.8 mph - N/A   Scattered Clouds
9:53 PM 61.0 °F 37.9 °F 42% 30.08 in 10.0 mi NW 6.9 mph - N/A   Scattered Clouds
10:53 PM 60.1 °F 37.9 °F 44% 30.07 in 10.0 mi NNW 6.9 mph - N/A   Clear
11:53 PM 57.9 °F 37.9 °F 47% 30.08 in 10.0 mi NNW 5.8 mph - N/A   Partly Cloudy